Regional Weather Roundup
Issued by NWS

Home | Current Version | Previous Version | Text Only | Print | Product List | Glossary Off
Versions: 1 2 3 4 5 6 7 8 9 10 11 12 13 14 15 16 17 18 19 20 21 22 23 24 25 26 27 28 29 30 31 32 33 34 35 36 37 38 39 40 41 42 43 44 45 46 47 48 49 50

000
ASUS43 KFSD 242210
RWRSD

WEATHER ROUNDUP FOR SOUTH DAKOTA
NATIONAL WEATHER SERVICE SIOUX FALLS SD
500 PM CDT TUE MAY 24 2016

NOTE: "FAIR" INDICATES FEW OR NO CLOUDS BELOW 12,000 FEET WITH NO
SIGNIFICANT WEATHER AND/OR OBSTRUCTIONS TO VISIBILITY.


SDZ001>005-009-010-012>017-242300-
NORTHWEST AND NORTH CENTRAL SOUTH DAKOTA

CITY           SKY/WX    TMP DP  RH WIND       PRES   REMARKS
BUFFALO          N/A     75  41  29 SE12G25   29.78F
FAITH            N/A     74  44  34 SE7       29.86F
MOBRIDGE       SUNNY     79  47  32 CALM      29.84F
$$

SDZ012>016-024>037-041>051-057-063-072>074-242300-
SOUTHWEST AND SOUTH CENTRAL SOUTH DAKOTA

CITY           SKY/WX    TMP DP  RH WIND       PRES   REMARKS
RAPID CTY ARPT MOSUNNY   69  44  40 E8        29.84F
PIERRE         SUNNY     80  40  23 S5        29.82F
CUSTER         CLOUDY    59  39  47 E10G18    29.92F
ELLSWORTH AFB  PTSUNNY   69  43  38 SE10      29.84F
PHILIP         MOSUNNY   75  47  36 E8        29.82F
PINE RIDGE     MOSUNNY   77  46  33 S13G21    29.81F
WINNER         FAIR      82  48  30 E8        29.83F
$$

SDZ004>011-016>023-039-040-242300-
NORTHEAST SOUTH DAKOTA

CITY           SKY/WX    TMP DP  RH WIND       PRES   REMARKS
ABERDEEN       SUNNY     85  50  29 W7        29.84S
WATERTOWN      SUNNY     84  44  24 SW6       29.86F
BROOKINGS      SUNNY     84  42  22 SW9       29.87R
SISSETON         N/A     85  45  24 SW12      29.82S
$$

SDZ017-020-022-023-036>040-048>070-242300-
SOUTHEAST SOUTH DAKOTA

CITY           SKY/WX    TMP DP  RH WIND       PRES   REMARKS
SIOUX FALLS    MOSUNNY   83  51  33 S5        29.87S
HURON          SUNNY     83  45  26 SW7       29.83F
CHAMBERLAIN    SUNNY     83  47  28 SW5       29.84F
MITCHELL       SUNNY     85  46  25 MISG      29.84F
YANKTON        SUNNY     84  54  34 CALM      29.83F
$$

ABBREVIATIONS USED IN REMARKS
   TC - TEMPERATURE IN CELSIUS
  WCI - WIND CHILL INDEX
   HX - HEAT INDEX
  VSB - VISIBILITY





USA.gov is the U.S. government's official web portal to all federal, state and local government web resources and services.